GW1914 Weather Reports


Display with metric or nautical units.
time (UTC)temp
F
wind
direction
speed
MPH
gust
MPH
rain 1hr
in
rain 24hr
in
rain mn
in
humidity
%
barometer
mb
20260904062030 53 260 2.0 7.0 0.05 0.10 0.10 90 1013.3
20260904061540 53 265 3.0 7.0 0.04 0.09 0.09 89 1013.3
20260904061035 53 259 0.0 4.0 0.03 0.08 0.08 89 1013.4
20260904060526 53 304 0.0 4.0 0.03 0.08 0.08 89 1013.4
20260904060022 53 248 0.0 0.0 0.02 0.07 0.07 87 1013.2
20260904055531 53 109 0.0 0.0 0.02 0.07 0.07 87 1013.2
20260904055020 53 138 0.0 0.0 0.03 0.07 0.07 87 1013.1
20260904054539 53 106 0.0 3.0 0.02 0.06 0.06 86 1013.1
20260904054031 53 59 1.0 3.0 0.02 0.06 0.06 85 1013.1
20260904053536 54 54 0.0 6.0 0.01 0.05 0.05 84 1013.0
20260904053032 54 61 1.0 6.0 0.01 0.05 0.05 83 1013.0
20260904052523 54 63 0.0 5.0 0.01 0.05 0.05 83 1013.0
20260904052030 54 113 0.0 7.0 0.01 0.05 0.05 83 1012.9
20260904051525 54 85 2.0 12.0 0.01 0.05 0.05 82 1013.0
20260904051024 54 93 3.0 12.0 0.02 0.05 0.05 82 1013.0
20260904050528 55 105 2.0 5.0 0.02 0.05 0.05 81 1012.9
20260904050023 55 128 0.0 2.0 0.02 0.05 0.05 80 1012.8
20260904045535 55 83 0.0 4.0 0.02 0.05 0.05 79 1012.9
20260904045025 55 94 1.0 4.0 0.01 0.04 0.04 77 1013.0
20260904044535 55 84 1.0 6.0 0.01 0.04 0.04 76 1013.0
20260904044030 56 77 2.0 6.0 0.01 0.04 0.04 75 1013.0
20260904043520 57 57 2.0 4.0 0.01 0.04 0.04 71 1013.1
20260904043054 57 80 2.0 4.0 0.01 0.04 0.04 67 1012.9
20260904042529 57 74 2.0 6.0 0.01 0.04 0.04 68 1012.9
20260904042035 57 108 2.0 7.0 0.01 0.04 0.04 66 1012.9
20260904041532 57 105 4.0 7.0 0.01 0.04 0.04 65 1012.9
20260904041022 58 84 2.0 6.0 0.00 0.03 0.03 65 1012.9
20260904040537 58 109 2.0 6.0 0.00 0.03 0.03 62 1012.8
20260904040028 59 94 2.0 5.0 0.00 0.03 0.03 59 1012.6
20260904035519 59 55 3.0 5.0 0.00 0.21 0.03 57 1012.5
20260904035027 59 111 2.0 5.0 0.00 0.21 0.03 58 1012.5
20260904034526 59 114 2.0 4.0 0.00 0.21 0.03 63 1012.5
20260904034034 60 72 1.0 3.0 0.00 0.21 0.03 60 1012.5
20260904033525 60 80 0.0 3.0 0.00 0.21 0.03 58 1012.5
20260904033021 60 90 0.0 2.0 0.00 0.21 0.03 58 1012.5
20260904032534 60 90 0.0 3.0 0.00 0.21 0.03 57 1012.4
20260904032021 60 107 1.0 3.0 0.00 0.21 0.03 57 1012.4
20260904031518 60 72 0.0 2.0 0.00 0.21 0.03 55 1012.3
20260904031029 61 74 1.0 2.0 0.00 0.21 0.03 53 1012.3
20260904030538 61 60 0.0 3.0 0.00 0.21 0.03 53 1012.2
20260904030034 61 58 1.0 3.0 0.00 0.21 0.03 52 1012.4
20260904025525 61 61 2.0 3.0 0.00 0.21 0.03 51 1012.4
20260904025034 61 61 2.0 5.0 0.00 0.21 0.03 50 1012.3
20260904024531 62 33 2.0 5.0 0.00 0.21 0.03 50 1012.4
20260904024023 62 50 2.0 4.0 0.00 0.21 0.03 50 1012.3
20260904023532 62 51 1.0 3.0 0.00 0.21 0.03 50 1012.5
20260904023028 62 32 0.0 1.0 0.00 0.21 0.03 51 1012.4
20260904022535 62 53 0.0 0.0 0.00 0.21 0.03 49 1012.5
20260904022025 62 54 0.0 0.0 0.00 0.21 0.03 49 1012.6
20260904021524 62 54 0.0 0.0 0.00 0.21 0.03 48 1012.6
20260904021033 62 54 0.0 2.0 0.00 0.21 0.03 46 1012.6
20260904020539 62 54 0.0 2.0 0.00 0.21 0.03 46 1012.5
20260904020032 62 54 1.0 3.0 0.00 0.21 0.03 48 1012.5
20260904015520 62 30 1.0 2.0 0.00 0.21 0.03 47 1012.4
20260904015034 62 5 1.0 2.0 0.00 0.21 0.03 47 1012.5
20260904014528 62 309 0.0 2.0 0.00 0.21 0.03 47 1012.5
20260904014020 63 303 0.0 0.0 0.00 0.21 0.03 48 1012.4
20260904013531 63 300 0.0 0.0 0.00 0.21 0.03 47 1012.4
20260904013028 63 247 0.0 0.0 0.00 0.21 0.03 46 1012.4
20260904012536 63 247 0.0 0.0 0.00 0.21 0.03 47 1012.4
20260904012027 63 247 0.0 0.0 0.00 0.21 0.03 46 1012.5
20260904011527 63 247 0.0 0.0 0.00 0.21 0.03 46 1012.7
20260904011036 63 247 0.0 0.0 0.00 0.21 0.03 45 1012.6
20260904010522 63 247 0.0 1.0 0.00 0.21 0.03 45 1012.7
20260904010036 63 247 0.0 1.0 0.00 0.21 0.03 46 1012.7
20260904005526 63 247 0.0 0.0 0.00 0.21 0.03 46 1012.6
20260904005035 63 247 0.0 0.0 0.00 0.21 0.03 46 1012.7
20260904004535 63 247 0.0 0.0 0.00 0.21 0.03 44 1012.7
20260904004023 63 247 0.0 0.0 0.00 0.21 0.03 47 1012.8
20260904003541 63 247 0.0 0.0 0.00 0.21 0.03 46 1012.8
20260904003039 63 247 0.0 3.0 0.00 0.21 0.03 47 1012.9
20260904002521 63 247 0.0 3.0 0.00 0.21 0.03 46 1013.0
20260904002033 63 250 1.0 3.0 0.00 0.21 0.03 47 1013.0
20260904001531 63 195 1.0 3.0 0.00 0.21 0.03 47 1013.2
20260904001018 63 174 0.0 4.0 0.00 0.21 0.03 46 1013.3
20260904000529 64 173 1.0 3.0 0.00 0.21 0.03 47 1013.3
20260904000027 63 173 1.0 3.0 0.00 0.21 0.03 46 1013.3
20260903235537 63 220 1.0 4.0 0.00 0.21 0.03 48 1013.3
20260903235025 63 117 1.0 4.0 0.00 0.21 0.03 46 1013.4
20260903234527 64 86 1.0 5.0 0.00 0.21 0.03 47 1013.5
20260903234030 64 169 0.0 3.0 0.00 0.21 0.03 47 1013.4
20260903233521 63 84 1.0 3.0 0.00 0.21 0.03 46 1013.4
20260903233045 64 73 1.0 3.0 0.00 0.21 0.03 48 1013.4
20260903232533 65 118 0.0 5.0 0.00 0.21 0.03 48 1013.5
20260903232040 64 101 1.0 4.0 0.00 0.21 0.03 49 1013.5
20260903231533 63 97 1.0 3.0 0.00 0.21 0.03 48 1013.6
20260903231024 64 207 0.0 3.0 0.00 0.21 0.03 51 1013.7
20260903230532 63 82 0.0 3.0 0.00 0.21 0.03 49 1013.8
20260903230033 63 77 1.0 3.0 0.00 0.21 0.03 48 1013.7
20260903225536 64 78 1.0 4.0 0.00 0.21 0.03 49 1013.8
20260903225026 64 114 1.0 4.0 0.00 0.21 0.03 48 1013.8
20260903224527 63 315 0.0 3.0 0.00 0.21 0.03 51 1013.9
20260903224034 63 198 1.0 5.0 0.00 0.21 0.03 50 1013.9
20260903223523 63 213 2.0 5.0 0.00 0.21 0.03 49 1013.9
20260903223023 64 189 1.0 5.0 0.00 0.21 0.03 50 1014.0
20260903222530 63 142 1.0 5.0 0.00 0.21 0.03 52 1014.1
20260903222024 63 183 0.0 3.0 0.00 0.21 0.03 51 1014.1
20260903221520 63 180 0.0 3.0 0.00 0.21 0.03 51 1014.2
20260903221031 63 217 0.0 5.0 0.00 0.21 0.03 53 1014.3
20260903220519 63 198 0.0 5.0 0.00 0.21 0.03 51 1014.2
20260903220039 64 227 0.0 3.0 0.00 0.21 0.03 49 1014.3
20260903215524 64 351 1.0 5.0 0.00 0.21 0.03 52 1014.1
20260903215036 63 20 1.0 7.0 0.00 0.21 0.03 53 1014.2
20260903214532 63 184 4.0 8.0 0.00 0.21 0.03 55 1014.1
20260903214020 63 194 4.0 9.0 0.00 0.21 0.03 49 1014.2
20260903213528 64 344 0.0 5.0 0.00 0.21 0.03 52 1014.3
20260903213025 64 194 1.0 5.0 0.00 0.21 0.03 48 1014.3
20260903212534 62 302 2.0 6.0 0.00 0.21 0.03 53 1014.3
20260903212024 62 360 0.0 7.0 0.00 0.21 0.03 54 1014.3
20260903211519 62 105 4.0 7.0 0.00 0.21 0.03 53 1014.3
20260903211029 62 82 0.0 5.0 0.00 0.21 0.03 54 1014.3
20260903210524 62 117 0.0 6.0 0.00 0.21 0.03 55 1014.4
20260903210029 62 165 3.0 8.0 0.00 0.21 0.03 54 1014.4
20260903205528 62 284 5.0 8.0 0.00 0.21 0.03 54 1014.3
20260903205018 62 188 2.0 10.0 0.00 0.21 0.03 53 1014.4
20260903204534 62 5 4.0 10.0 0.00 0.21 0.03 55 1014.3
20260903204026 62 17 1.0 6.0 0.00 0.21 0.03 55 1014.3
20260903203532 62 65 2.0 8.0 0.00 0.21 0.03 57 1014.4
20260903203031 61 39 1.0 8.0 0.00 0.21 0.03 54 1014.4
20260903202519 61 355 2.0 10.0 0.00 0.21 0.03 55 1014.3
20260903202030 61 238 4.0 10.0 0.00 0.21 0.03 56 1014.3
20260903201525 61 194 3.0 10.0 0.00 0.21 0.03 58 1014.5
20260903201037 61 177 2.0 11.0 0.00 0.21 0.03 55 1014.4
20260903200524 61 49 3.0 8.0 0.00 0.21 0.03 59 1014.4
20260903200021 61 57 3.0 14.0 0.00 0.22 0.03 56 1014.4
20260903195532 61 37 3.0 14.0 0.00 0.22 0.03 58 1014.6
20260903195022 61 9 3.0 8.0 0.00 0.22 0.03 61 1014.5
20260903194521 61 347 2.0 10.0 0.00 0.22 0.03 56 1014.5
20260903194031 62 135 2.0 10.0 0.00 0.22 0.03 56 1014.5
20260903193520 62 351 2.0 8.0 0.00 0.22 0.03 57 1014.7
20260903193037 61 71 2.0 8.0 0.00 0.22 0.03 59 1014.7
20260903192528 61 344 2.0 10.0 0.00 0.22 0.03 59 1014.7
20260903192019 60 60 3.0 10.0 0.00 0.22 0.03 59 1014.8
20260903191549 60 76 2.0 10.0 0.00 0.22 0.03 59 1014.8
20260903191024 60 179 4.0 10.0 0.00 0.22 0.03 56 1014.8
20260903190536 59 238 4.0 9.0 0.00 0.22 0.03 61 1014.8
20260903190031 59 209 2.0 10.0 0.00 0.22 0.03 61 1014.8
20260903185521 59 208 6.0 10.0 0.00 0.28 0.03 62 1014.8
20260903185033 58 169 2.0 10.0 0.00 0.28 0.03 62 1014.8
20260903184541 58 194 6.0 10.0 0.00 0.28 0.03 63 1014.8
20260903184036 58 192 6.0 10.0 0.00 0.28 0.03 63 1014.9
20260903183525 58 175 5.0 11.0 0.00 0.28 0.03 62 1014.9
20260903183025 58 256 6.0 12.0 0.00 0.28 0.03 62 1014.9
20260903182538 58 187 5.0 10.0 0.00 0.28 0.03 65 1014.8
20260903182023 58 196 7.0 12.0 0.00 0.28 0.03 64 1014.9
20260903181520 58 202 6.0 14.0 0.00 0.28 0.03 60 1014.7
20260903181027 58 224 9.0 14.0 0.00 0.28 0.03 61 1014.8
20260903180537 58 192 8.0 13.0 0.00 0.28 0.03 68 1015.0
20260903180038 57 199 9.0 13.0 0.00 0.28 0.03 67 1015.0
20260903175518 57 130 7.0 14.0 0.00 0.28 0.03 68 1014.9
20260903175026 57 212 10.0 15.0 0.00 0.28 0.03 69 1014.9
20260903174524 57 210 12.0 15.0 0.00 0.28 0.03 67 1014.8
20260903174018 58 184 7.0 12.0 0.00 0.28 0.03 66 1014.8
20260903173527 57 219 7.0 14.0 0.00 0.28 0.03 69 1014.6
20260903173025 57 183 3.0 14.0 0.00 0.28 0.03 71 1014.7
20260903172534 57 164 6.0 14.0 0.00 0.28 0.03 70 1014.7
20260903172023 57 211 6.0 11.0 0.00 0.28 0.03 75 1014.6
20260903171518 57 196 4.0 10.0 0.00 0.28 0.03 75 1014.6
20260903171030 57 193 5.0 10.0 0.00 0.28 0.03 74 1014.5
20260903170519 57 198 5.0 7.0 0.00 0.28 0.03 74 1014.6
20260903170037 57 269 3.0 7.0 0.00 0.28 0.03 74 1014.7
20260903165524 57 151 2.0 6.0 0.00 0.28 0.03 76 1014.7
20260903165034 56 217 2.0 6.0 0.00 0.28 0.03 78 1014.6
20260903164531 56 186 1.0 8.0 0.00 0.28 0.03 77 1014.6
20260903164019 55 213 3.0 6.0 0.00 0.28 0.03 77 1014.5
20260903163529 55 222 4.0 6.0 0.00 0.28 0.03 76 1014.6
20260903163030 55 229 2.0 10.0 0.00 0.28 0.03 80 1014.6
20260903162536 55 244 4.0 10.0 0.00 0.28 0.03 79 1014.6
20260903162024 55 269 2.0 9.0 0.00 0.28 0.03 79 1014.6
20260903161520 55 202 4.0 10.0 0.00 0.28 0.03 78 1014.7
20260903161029 56 242 4.0 10.0 0.00 0.28 0.03 79 1014.6
20260903160523 56 186 4.0 9.0 0.00 0.28 0.03 79 1014.5
20260903160034 55 175 4.0 10.0 0.00 0.28 0.03 81 1014.5
20260903155523 55 60 6.0 11.0 0.00 0.28 0.03 81 1014.5
20260903155031 55 175 5.0 10.0 0.00 0.28 0.03 80 1014.5
20260903154529 55 202 4.0 8.0 0.00 0.28 0.03 81 1014.5
20260903154020 55 213 4.0 8.0 0.00 0.28 0.03 80 1014.5
20260903153527 55 205 3.0 7.0 0.00 0.28 0.03 81 1014.5
20260903153023 55 223 3.0 7.0 0.00 0.28 0.03 81 1014.5
20260903152531 55 198 4.0 8.0 0.00 0.28 0.03 81 1014.5
20260903152024 55 202 2.0 9.0 0.00 0.28 0.03 81 1014.4
20260903151523 55 223 6.0 14.0 0.00 0.28 0.03 82 1014.4
20260903151031 55 241 7.0 15.0 0.00 0.28 0.03 80 1014.3
20260903150521 55 156 9.0 15.0 0.00 0.28 0.03 81 1014.2
20260903150020 55 184 8.0 13.0 0.00 0.28 0.03 82 1014.1
20260903145528 55 159 6.0 10.0 0.00 0.28 0.03 81 1014.1
20260903145037 55 136 5.0 10.0 0.00 0.28 0.03 82 1014.2
20260903144536 55 204 6.0 10.0 0.00 0.28 0.03 83 1014.1
20260903144023 55 192 7.0 10.0 0.00 0.28 0.03 83 1014.0
20260903143533 55 197 2.0 8.0 0.00 0.28 0.03 84 1013.8
20260903143051 55 174 5.0 8.0 0.00 0.28 0.03 84 1013.7
20260903142519 54 194 4.0 9.0 0.01 0.28 0.03 85 1013.7
20260903142032 54 144 6.0 8.0 0.01 0.28 0.03 85 1013.9
20260903141525 54 198 3.0 8.0 0.01 0.28 0.03 85 1013.9
20260903141020 54 241 4.0 7.0 0.01 0.28 0.03 85 1013.9
20260903140530 54 192 3.0 6.0 0.01 0.28 0.03 85 1013.8
20260903140026 54 205 3.0 6.0 0.01 0.28 0.03 84 1013.7
20260903135531 54 240 3.0 6.0 0.02 0.28 0.03 85 1013.7
20260903135021 54 206 3.0 7.0 0.02 0.28 0.03 85 1013.6
20260903134523 54 210 4.0 7.0 0.02 0.28 0.03 86 1013.5
20260903134031 54 154 3.0 6.0 0.02 0.28 0.03 85 1013.4
20260903133519 54 202 3.0 6.0 0.02 0.28 0.03 86 1013.4
20260903133035 54 178 4.0 6.0 0.02 0.28 0.03 85 1013.4
20260903132527 54 216 2.0 7.0 0.01 0.28 0.02 86 1013.3
20260903132034 54 182 3.0 7.0 0.01 0.28 0.02 87 1013.2
20260903131531 54 192 3.0 7.0 0.01 0.28 0.02 87 1013.1
20260903131018 54 109 2.0 6.0 0.01 0.28 0.02 86 1013.0
20260903130535 54 184 3.0 7.0 0.01 0.28 0.02 86 1012.9
20260903130028 54 217 3.0 8.0 0.01 0.28 0.02 85 1012.9
20260903125517 55 202 5.0 8.0 0.00 0.27 0.01 84 1012.8
20260903125027 55 342 3.0 9.0 0.00 0.27 0.01 85 1012.7
20260903124528 55 175 5.0 9.0 0.00 0.27 0.01 84 1012.7
20260903124033 55 201 2.0 11.0 0.00 0.27 0.01 85 1012.8
20260903123522 55 173 6.0 11.0 0.00 0.27 0.01 85 1012.7
20260903123018 55 220 6.0 9.0 0.00 0.27 0.01 86 1012.6
20260903122530 55 235 4.0 9.0 0.00 0.27 0.01 87 1012.6
20260903122038 54 201 4.0 9.0 0.00 0.27 0.01 87 1012.6
20260903121534 55 175 3.0 9.0 0.00 0.27 0.01 87 1012.6
20260903121027 55 157 3.0 8.0 0.00 0.27 0.01 87 1012.5
20260903120533 55 208 5.0 11.0 0.00 0.27 0.01 87 1012.6
20260903120027 55 178 6.0 9.0 0.00 0.27 0.01 87 1012.4
20260903115517 55 207 5.0 10.0 0.00 0.27 0.01 87 1012.3
20260903115028 55 196 5.0 10.0 0.00 0.27 0.01 87 1012.2
20260903114526 55 192 4.0 10.0 0.00 0.27 0.01 87 1012.3
20260903114034 55 202 6.0 10.0 0.00 0.27 0.01 86 1012.2
20260903113525 55 172 6.0 9.0 0.00 0.27 0.01 86 1012.2
20260903113034 55 214 3.0 9.0 0.00 0.27 0.01 87 1012.2
20260903112534 55 176 5.0 9.0 0.00 0.27 0.01 86 1012.2
20260903112024 55 181 5.0 10.0 0.00 0.27 0.01 86 1012.1
20260903111521 55 188 6.0 10.0 0.00 0.27 0.01 85 1012.1
20260903111029 55 207 6.0 9.0 0.00 0.27 0.01 86 1012.2
20260903110537 55 320 5.0 11.0 0.00 0.27 0.01 86 1012.1
20260903110032 55 187 5.0 11.0 0.00 0.27 0.01 86 1012.1
20260903105519 55 190 5.0 9.0 0.00 0.27 0.01 86 1012.2
20260903105029 55 196 5.0 9.0 0.00 0.27 0.01 86 1012.2
20260903104524 55 125 5.0 9.0 0.00 0.27 0.01 86 1012.1
20260903104018 55 213 3.0 9.0 0.01 0.27 0.01 86 1012.1
20260903103528 55 232 5.0 9.0 0.01 0.27 0.01 86 1012.1
20260903103024 55 186 6.0 9.0 0.01 0.27 0.01 86 1012.0
20260903102537 55 187 5.0 9.0 0.01 0.27 0.01 86 1012.1
20260903102027 55 204 6.0 10.0 0.01 0.27 0.01 85 1012.0
20260903101524 56 160 6.0 10.0 0.01 0.27 0.01 86 1011.9
20260903101031 56 160 5.0 9.0 0.01 0.27 0.01 86 1011.9
20260903100519 56 167 5.0 9.0 0.01 0.27 0.01 87 1011.9
20260903100034 56 201 5.0 10.0 0.01 0.27 0.01 86 1011.9
20260903095524 56 190 5.0 8.0 0.01 0.27 0.01 86 1011.8
20260903095032 56 172 5.0 8.0 0.01 0.27 0.01 87 1011.8
20260903094529 56 190 6.0 9.0 0.01 0.27 0.01 87 1011.8
20260903094037 56 204 5.0 9.0 0.00 0.26 0.00 87 1011.8
20260903093532 56 197 4.0 7.0 0.00 0.26 0.00 87 1011.7
20260903093034 56 195 2.0 7.0 0.00 0.26 0.00 87 1011.7
20260903092521 56 212 4.0 9.0 0.00 0.26 0.00 87 1011.6
20260903092029 56 169 4.0 9.0 0.00 0.26 0.00 87 1011.7
20260903091529 56 209 5.0 9.0 0.00 0.26 0.00 87 1011.7
20260903091030 56 181 5.0 8.0 0.00 0.26 0.00 86 1011.7
20260903090537 56 215 5.0 8.0 0.00 0.26 0.00 85 1011.7
20260903090034 56 161 5.0 7.0 0.00 0.26 0.00 84 1011.7
20260903085521 56 155 4.0 7.0 0.00 0.26 0.00 84 1011.8
20260903085032 57 202 5.0 7.0 0.00 0.26 0.00 83 1011.8
20260903084528 57 192 4.0 8.0 0.00 0.26 0.00 82 1011.8
20260903084035 57 194 2.0 8.0 0.00 0.26 0.00 80 1011.7
20260903083526 57 198 4.0 8.0 0.00 0.26 0.00 79 1011.6
20260903083028 58 192 2.0 7.0 0.00 0.26 0.00 81 1011.6
20260903082530 57 28 0.0 5.0 0.00 0.26 0.00 80 1011.6
20260903082024 58 157 3.0 6.0 0.00 0.26 0.00 80 1011.6
20260903081523 58 167 2.0 6.0 0.00 0.26 0.00 79 1011.6
20260903081030 58 208 3.0 5.0 0.00 0.26 0.00 80 1011.6
20260903080525 58 190 3.0 7.0 0.00 0.26 0.00 77 1011.6
20260903080017 58 221 4.0 7.0 0.00 0.26 0.00 77 1011.6
20260903075529 58 204 4.0 7.0 0.00 0.26 0.00 78 1011.6
20260903075035 58 157 4.0 7.0 0.00 0.26 0.00 78 1011.7
20260903074532 58 165 1.0 7.0 0.00 0.26 0.00 80 1011.7
20260903074020 58 213 3.0 7.0 0.00 0.26 0.00 80 1011.5
20260903073533 58 215 3.0 6.0 0.00 0.26 0.00 78 1011.6
20260903073032 58 214 1.0 6.0 0.00 0.26 0.00 78 1011.7
20260903072521 58 179 2.0 8.0 0.00 0.26 0.00 76 1011.7
20260903072028 58 67 3.0 8.0 0.00 0.26 0.00 76 1011.7
20260903071524 58 215 4.0 8.0 0.00 0.26 0.00 77 1011.6
20260903071037 58 69 4.0 8.0 0.00 0.26 0.00 76 1011.8
20260903070526 58 155 2.0 7.0 0.00 0.26 0.00 76 1011.6
20260903070022 58 221 1.0 8.0 0.00 0.26 0.26 78 1011.7
20260903065531 58 168 2.0 6.0 0.00 0.26 0.26 76 1011.8
20260903065020 58 204 4.0 6.0 0.00 0.26 0.26 77 1011.7
20260903064526 58 5 0.0 6.0 0.00 0.26 0.26 77 1011.8
20260903064028 58 108 1.0 6.0 0.00 0.26 0.26 75 1011.7
20260903063519 58 146 2.0 6.0 0.00 0.26 0.26 75 1011.8
20260903063032 59 242 2.0 6.0 0.00 0.26 0.26 75 1011.8
20260903062524 58 105 1.0 6.0 0.00 0.26 0.26 74 1011.9